Tracking 31027 objects as of 19-Jul-2025
HD Live streaming from Space Station
objects crossing your sky now

ARIANE 5 R/B

Track ARIANE 5 R/B now!
10-day predictions


NORAD ID: 29498
Int'l Code: 2006-043E
Perigee: 232.5 km
Apogee: 22,142.0 km
Inclination: 6.9 °
Period: 385.9 minutes
Semi major axis: 17558 km
RCS: 22.7915 m2 (large)
Launch date: October 13, 2006
Source: France (FR)
Launch site: FRENCH GUIANA (FRGUI)

Note: This is a ROCKET BODY
Your satellite tracking list
KL-BETA B
Track 1 satellite(s)




NASA's NSSDC Master Catalog

Two Line Element Set (TLE):
1 29498U 06043E   25199.29978611  .00010024  00000-0  74098-3 0  9992
2 29498   6.8712 142.5000 6239105 112.8345 322.0539  3.73148605203938
Source of the keplerian elements: AFSPC